Location: downtown San Diego
(32.7310°N, 117.1990°W)
Time: 00:57:24
(UTC-07:00)

Cosmos 540 Rocket - Pass Details

Date: 12 July 2018
Orbit: 741 x 753 km, 74.1° (Epoch: 18 July)

Event Time Altitude Azimuth Distance (km) Brightness Sun altitude
Rises 22:56:07 0° 349° (N) 3,183 7.7 -28.5°
Reaches altitude 10° 22:58:32 10° 355° (N) 2,255 6.7 -28.8°
Enters shadow 23:02:25 43° 31° (NNE) 1,032 4.2 -29.2°
